�������l�o���
Date,Time,MP-1(��Sv/h),MP-2(��Sv/h),MP-3(��Sv/h),MP-4(��Sv/h),MP-5(��Sv/h),MP-6(��Sv/h),MP-7(��Sv/h),MP-8(��Sv/h),����,����(m/s),���J
2024/04/21,00:00,0.514,0.786,0.491,0.975,0.700,0.318,0.556,0.520,�k�k��,5.5,��
2024/04/21,00:10,0.516,0.785,0.490,0.974,0.700,0.318,0.556,0.521,�k�k��,4.7,��
2024/04/21,00:20,0.516,0.786,0.491,0.974,0.701,0.317,0.556,0.521,�k�k��,5.4,��
2024/04/21,00:30,0.515,0.785,0.489,0.975,0.701,0.318,0.557,0.521,�k�k��,5.7,��
2024/04/21,00:40,0.514,0.786,0.491,0.977,0.701,0.317,0.557,0.523,�k�k��,5.4,��
2024/04/21,00:50,0.515,0.787,0.490,0.975,0.699,0.318,0.556,0.520,�k�k��,5.0,��
2024/04/21,01:00,0.516,0.788,0.488,0.976,0.700,0.318,0.557,0.521,�k�k��,5.1,��
2024/04/21,01:10,0.514,0.786,0.490,0.975,0.701,0.317,0.556,0.520,�k�k��,4.1,��
2024/04/21,01:20,0.515,0.786,0.492,0.975,0.700,0.318,0.557,0.522,�k�k��,4.3,��
2024/04/21,01:30,0.514,0.786,0.492,0.974,0.699,0.318,0.557,0.521,�k,3.7,��
2024/04/21,01:40,0.514,0.786,0.490,0.973,0.701,0.318,0.557,0.522,�k,3.3,��
2024/04/21,01:50,0.515,0.788,0.489,0.975,0.699,0.317,0.557,0.521,�k,4.1,��
2024/04/21,02:00,0.514,0.785,0.490,0.976,0.698,0.317,0.555,0.521,�k�k��,3.0,��
2024/04/21,02:10,0.515,0.786,0.490,0.975,0.700,0.318,0.557,0.520,�k�k��,4.0,��
2024/04/21,02:20,0.516,0.786,0.491,0.977,0.700,0.318,0.554,0.520,�k��,4.1,��
2024/04/21,02:30,0.515,0.784,0.491,0.974,0.700,0.317,0.555,0.519,���k��,2.6,��
2024/04/21,02:40,0.515,0.785,0.490,0.977,0.698,0.319,0.557,0.521,���k��,3.0,��
2024/04/21,02:50,0.515,0.785,0.488,0.974,0.698,0.317,0.557,0.520,���k��,3.1,��
2024/04/21,03:00,0.513,0.786,0.491,0.976,0.699,0.317,0.557,0.520,���k��,4.6,��
2024/04/21,03:10,0.515,0.786,0.492,0.975,0.699,0.318,0.557,0.520,�k��,4.9,��
2024/04/21,03:20,0.514,0.785,0.490,0.975,0.700,0.317,0.556,0.520,�k�k��,4.2,��
2024/04/21,03:30,0.514,0.785,0.491,0.976,0.698,0.317,0.557,0.520,�k��,5.3,��
2024/04/21,03:40,0.514,0.786,0.491,0.975,0.699,0.318,0.556,0.522,�k��,4.4,��
2024/04/21,03:50,0.515,0.784,0.491,0.975,0.699,0.317,0.557,0.521,�k��,4.2,��
2024/04/21,04:00,0.515,0.785,0.490,0.975,0.699,0.317,0.558,0.520,�k��,3.8,��
2024/04/21,04:10,0.514,0.785,0.490,0.979,0.698,0.318,0.557,0.521,�k��,3.8,��
2024/04/21,04:20,0.515,0.787,0.491,0.977,0.700,0.318,0.557,0.520,�k��,4.0,��
2024/04/21,04:30,0.514,0.785,0.492,0.976,0.697,0.317,0.558,0.522,�k��,5.3,��
2024/04/21,04:40,0.515,0.787,0.489,0.978,0.700,0.318,0.557,0.521,�k��,6.0,��
2024/04/21,04:50,0.514,0.787,0.491,0.975,0.700,0.317,0.557,0.522,���k��,5.8,��
2024/04/21,05:00,0.513,0.786,0.491,0.976,0.698,0.317,0.556,0.520,���k��,5.5,��
2024/04/21,05:10,0.515,0.786,0.491,0.978,0.699,0.317,0.558,0.520,���k��,4.5,��
2024/04/21,05:20,0.514,0.786,0.490,0.976,0.698,0.317,0.555,0.521,��,3.2,��
2024/04/21,05:30,0.515,0.788,0.490,0.978,0.699,0.318,0.556,0.521,���쐼,2.6,��
2024/04/21,05:40,0.516,0.786,0.491,0.975,0.698,0.318,0.558,0.521,��,2.6,��
2024/04/21,05:50,0.514,0.786,0.490,0.975,0.701,0.317,0.558,0.522,��,3.0,��
2024/04/21,06:00,0.514,0.786,0.491,0.976,0.699,0.317,0.558,0.522,��,2.5,��
2024/04/21,06:10,0.515,0.786,0.491,0.976,0.698,0.320,0.558,0.521,��,1.7,��
2024/04/21,06:20,0.516,0.785,0.491,0.977,0.698,0.318,0.558,0.523,���k��,1.2,��
2024/04/21,06:30,0.513,0.786,0.491,0.977,0.699,0.317,0.559,0.521,���k��,1.2,��
2024/04/21,06:40,0.516,0.788,0.490,0.976,0.700,0.318,0.559,0.521,�k��,2.3,��
2024/04/21,06:50,0.516,0.788,0.493,0.977,0.700,0.317,0.559,0.520,���k��,3.7,��
2024/04/21,07:00,0.515,0.787,0.491,0.976,0.700,0.318,0.559,0.522,���k��,5.4,��
2024/04/21,07:10,0.514,0.786,0.491,0.980,0.699,0.319,0.559,0.521,���k��,3.6,��
2024/04/21,07:20,0.515,0.785,0.492,0.977,0.701,0.316,0.559,0.522,�k��,2.6,��
2024/04/21,07:30,0.514,0.786,0.492,0.977,0.701,0.317,0.559,0.522,�k�k��,3.2,��
2024/04/21,07:40,0.515,0.784,0.494,0.975,0.702,0.316,0.557,0.523,�k�k��,3.1,��
2024/04/21,07:50,0.516,0.783,0.491,0.981,0.700,0.316,0.559,0.522,�k,3.1,��
2024/04/21,08:00,0.515,0.785,0.493,0.977,0.701,0.316,0.559,0.523,�k,3.8,��
2024/04/21,08:10,0.516,0.783,0.491,0.977,0.699,0.317,0.558,0.521,�k,2.9,��
2024/04/21,08:20,0.515,0.785,0.490,0.977,0.699,0.317,0.557,0.522,�k�k��,3.6,��
2024/04/21,08:30,0.517,0.783,0.490,0.977,0.698,0.318,0.558,0.520,�k�k��,4.7,��
2024/04/21,08:40,0.513,0.782,0.491,0.978,0.698,0.318,0.555,0.520,�k�k��,4.6,��
2024/04/21,08:50,0.513,0.785,0.490,0.978,0.697,0.316,0.559,0.520,�k�k��,5.3,��
2024/04/21,09:00,0.515,0.783,0.490,0.979,0.697,0.316,0.556,0.519,�k�k��,5.6,��
2024/04/21,09:10,0.513,0.784,0.488,0.977,0.697,0.317,0.557,0.519,�k��,4.9,��
2024/04/21,09:20,0.514,0.785,0.490,0.978,0.699,0.317,0.557,0.519,�k�k��,5.5,��
2024/04/21,09:30,0.513,0.785,0.491,0.979,0.698,0.317,0.558,0.519,�k��,5.1,��
2024/04/21,09:40,0.514,0.783,0.491,0.979,0.697,0.317,0.556,0.519,�k�k��,4.0,��
2024/04/21,09:50,0.514,0.784,0.492,0.977,0.698,0.316,0.557,0.519,�k,5.9,��
2024/04/21,10:00,0.513,0.786,0.490,0.977,0.698,0.316,0.556,0.520,�k�k��,4.5,��
2024/04/21,10:10,0.513,0.785,0.490,0.978,0.697,0.316,0.556,0.517,�k�k��,2.6,��
2024/04/21,10:20,0.513,0.785,0.491,0.979,0.700,0.317,0.556,0.519,�k�k��,3.2,��
2024/04/21,10:30,0.513,0.784,0.490,0.978,0.697,0.317,0.556,0.519,�k��,3.2,��
2024/04/21,10:40,0.514,0.785,0.491,0.976,0.697,0.316,0.557,0.520,�k�k��,3.6,��
2024/04/21,10:50,0.512,0.785,0.490,0.978,0.700,0.317,0.558,0.519,�k��,2.8,��
2024/04/21,11:00,0.515,0.783,0.490,0.978,0.701,0.316,0.556,0.519,�k��,2.9,��
2024/04/21,11:10,0.513,0.786,0.490,0.979,0.699,0.317,0.558,0.519,���k��,2.9,��
2024/04/21,11:20,0.514,0.786,0.489,0.977,0.699,0.316,0.555,0.520,�k�k��,3.2,��
2024/04/21,11:30,0.514,0.786,0.492,0.976,0.701,0.317,0.556,0.520,�k��,3.6,��
2024/04/21,11:40,0.513,0.785,0.490,0.978,0.700,0.316,0.558,0.520,�k��,3.4,��
2024/04/21,11:50,0.515,0.786,0.488,0.977,0.699,0.315,0.556,0.519,���k��,3.1,��
2024/04/21,12:00,0.515,0.784,0.489,0.979,0.698,0.316,0.557,0.521,�k��,2.6,��
2024/04/21,12:10,0.515,0.787,0.489,0.977,0.699,0.317,0.557,0.521,���k��,2.0,��
2024/04/21,12:20,0.514,0.785,0.489,0.977,0.700,0.317,0.556,0.521,���k��,2.2,��
2024/04/21,12:30,0.513,0.786,0.490,0.977,0.699,0.314,0.556,0.518,���k��,1.7,��
2024/04/21,12:40,0.515,0.786,0.489,0.976,0.700,0.316,0.557,0.519,���k��,2.6,��
2024/04/21,12:50,0.514,0.786,0.489,0.978,0.700,0.317,0.556,0.519,���쓌,2.5,��
2024/04/21,13:00,0.516,0.785,0.489,0.978,0.700,0.316,0.557,0.519,���쓌,3.3,��
2024/04/21,13:10,0.514,0.786,0.488,0.979,0.700,0.317,0.555,0.519,���쓌,2.3,��
2024/04/21,13:20,0.515,0.787,0.491,0.979,0.700,0.317,0.558,0.520,��,2.8,��
2024/04/21,13:30,0.514,0.783,0.490,0.978,0.700,0.316,0.557,0.520,��,2.3,��
2024/04/21,13:40,0.514,0.786,0.490,0.978,0.700,0.317,0.557,0.519,��,2.6,��
2024/04/21,13:50,0.514,0.787,0.490,0.980,0.700,0.316,0.556,0.520,��,2.3,��
2024/04/21,14:00,0.514,0.785,0.490,0.978,0.702,0.316,0.557,0.518,��,2.8,��
2024/04/21,14:10,0.514,0.787,0.490,0.979,0.701,0.317,0.557,0.520,�쓌,3.4,��
2024/04/21,14:20,0.516,0.785,0.488,0.979,0.700,0.315,0.557,0.519,���쓌,1.9,��
2024/04/21,14:30,0.515,0.786,0.490,0.977,0.700,0.316,0.557,0.519,�쓌,1.7,��
2024/04/21,14:40,0.514,0.785,0.488,0.979,0.700,0.316,0.557,0.519,���쓌,2.5,��
2024/04/21,14:50,0.513,0.784,0.491,0.980,0.702,0.316,0.557,0.521,���쓌,2.6,��
2024/04/21,15:00,0.514,0.786,0.489,0.979,0.701,0.317,0.558,0.520,�쓌,2.5,��
2024/04/21,15:10,0.514,0.786,0.490,0.979,0.700,0.317,0.557,0.520,�쓌,2.0,��
2024/04/21,15:20,0.512,0.787,0.491,0.978,0.699,0.317,0.556,0.520,���쓌,2.6,��
2024/04/21,15:30,0.514,0.785,0.490,0.979,0.702,0.316,0.557,0.519,�쓌,2.3,��
2024/04/21,15:40,0.514,0.786,0.488,0.980,0.700,0.317,0.557,0.520,�쓌,2.6,��
2024/04/21,15:50,0.514,0.786,0.491,0.978,0.701,0.316,0.556,0.519,�쓌,2.5,��
2024/04/21,16:00,0.515,0.787,0.490,0.978,0.699,0.317,0.557,0.520,�쓌,2.8,��
2024/04/21,16:10,0.514,0.787,0.491,0.978,0.699,0.318,0.557,0.521,���쓌,2.2,��
2024/04/21,16:20,0.514,0.789,0.490,0.980,0.700,0.317,0.557,0.520,��,2.6,��
2024/04/21,16:30,0.514,0.787,0.491,0.979,0.701,0.318,0.556,0.519,�쓌,2.6,��
2024/04/21,16:40,0.515,0.788,0.491,0.978,0.701,0.317,0.555,0.521,��쓌,3.0,��
2024/04/21,16:50,0.515,0.788,0.491,0.980,0.700,0.317,0.555,0.520,��쓌,2.9,��
2024/04/21,17:00,0.514,0.787,0.491,0.980,0.700,0.316,0.556,0.519,��쓌,2.5,��
2024/04/21,17:10,0.514,0.786,0.490,0.980,0.701,0.318,0.555,0.520,�쓌,2.6,��
2024/04/21,17:20,0.515,0.788,0.491,0.978,0.698,0.318,0.555,0.520,���쓌,2.3,��
2024/04/21,17:30,0.516,0.788,0.491,0.980,0.700,0.318,0.555,0.520,�쓌,2.3,��
2024/04/21,17:40,0.515,0.788,0.493,0.981,0.701,0.316,0.556,0.522,�쓌,2.2,��
2024/04/21,17:50,0.517,0.791,0.492,0.977,0.700,0.318,0.554,0.520,��쓌,2.2,��
2024/04/21,18:00,0.516,0.789,0.492,0.980,0.702,0.317,0.554,0.521,�쓌,2.0,��
2024/04/21,18:10,0.518,0.790,0.492,0.979,0.700,0.318,0.557,0.522,�쓌,2.0,��
2024/04/21,18:20,0.518,0.788,0.492,0.976,0.701,0.318,0.558,0.520,��쓌,2.3,��
2024/04/21,18:30,0.516,0.790,0.491,0.980,0.700,0.319,0.556,0.521,��쓌,2.3,��
2024/04/21,18:40,0.517,0.789,0.491,0.977,0.701,0.318,0.557,0.521,�쓌,2.0,��
2024/04/21,18:50,0.517,0.789,0.492,0.978,0.704,0.318,0.558,0.524,��쓌,1.4,��
2024/04/21,19:00,0.516,0.788,0.493,0.979,0.702,0.317,0.557,0.521,��쓌,1.1,��
2024/04/21,19:10,0.515,0.789,0.490,0.977,0.703,0.317,0.558,0.521,��쓌,1.5,��
2024/04/21,19:20,0.516,0.789,0.491,0.979,0.702,0.317,0.557,0.521,��쓌,1.4,��
2024/04/21,19:30,0.518,0.788,0.492,0.978,0.702,0.317,0.558,0.522,��쓌,0.8,��
2024/04/21,19:40,0.518,0.789,0.493,0.980,0.704,0.318,0.558,0.522,��쓌,0.9,��
2024/04/21,19:50,0.516,0.790,0.493,0.977,0.702,0.318,0.558,0.521,��,0.8,��
2024/04/21,20:00,0.516,0.789,0.491,0.978,0.703,0.318,0.556,0.521,��,1.7,��
2024/04/21,20:10,0.516,0.789,0.492,0.977,0.705,0.316,0.558,0.522,��,3.8,��
2024/04/21,20:20,0.517,0.788,0.491,0.977,0.703,0.317,0.557,0.522,��,3.7,��
2024/04/21,20:30,0.516,0.789,0.493,0.979,0.702,0.318,0.557,0.522,��,3.3,��
2024/04/21,20:40,0.516,0.790,0.493,0.979,0.703,0.317,0.557,0.522,��쓌,3.1,��
2024/04/21,20:50,0.518,0.788,0.492,0.977,0.700,0.318,0.556,0.521,��쓌,3.2,��
2024/04/21,21:00,0.515,0.788,0.491,0.981,0.701,0.318,0.557,0.521,��쓌,2.6,��
2024/04/21,21:10,0.516,0.790,0.492,0.979,0.704,0.316,0.556,0.521,��쓌,2.2,��
2024/04/21,21:20,0.517,0.787,0.492,0.980,0.703,0.317,0.557,0.521,��,1.2,��
2024/04/21,21:30,0.516,0.788,0.493,0.980,0.701,0.320,0.557,0.522,��쓌,1.5,��
2024/04/21,21:40,0.517,0.787,0.491,0.978,0.704,0.318,0.557,0.522,��쓌,1.7,��
2024/04/21,21:50,0.516,0.789,0.492,0.980,0.702,0.319,0.556,0.521,��,1.5,��
2024/04/21,22:00,0.516,0.787,0.492,0.978,0.703,0.319,0.556,0.520,��,1.7,��
2024/04/21,22:10,0.518,0.789,0.491,0.980,0.701,0.318,0.558,0.521,��,1.5,��
2024/04/21,22:20,0.516,0.788,0.491,0.977,0.703,0.318,0.557,0.521,��,1.2,��
2024/04/21,22:30,0.515,0.789,0.492,0.980,0.701,0.319,0.558,0.521,��,0.8,��
2024/04/21,22:40,0.516,0.789,0.491,0.979,0.701,0.318,0.557,0.522,-,CALM,��
2024/04/21,22:50,0.517,0.789,0.492,0.977,0.703,0.318,0.557,0.521,-,CALM,��
2024/04/21,23:00,0.517,0.789,0.489,0.980,0.702,0.318,0.557,0.522,���쐼,0.6,��
2024/04/21,23:10,0.515,0.787,0.492,0.979,0.703,0.318,0.557,0.521,-,CALM,��
2024/04/21,23:20,0.516,0.788,0.492,0.978,0.704,0.317,0.557,0.520,�k��,0.8,��
2024/04/21,23:30,0.516,0.790,0.492,0.980,0.700,0.320,0.558,0.521,�k��,1.1,��
2024/04/21,23:40,0.517,0.789,0.490,0.978,0.702,0.319,0.557,0.521,�k,0.6,��
2024/04/21,23:50,0.515,0.789,0.491,0.979,0.702,0.319,0.558,0.521,�k,1.1,��
